GW1009 Weather Reports


time (UTC)temp
C
wind
direction
speed
KPH
gust
KPH
rain 1hr
cm
rain 24hr
cm
rain mn
cm
humidity
%
barometer
mb
20260504050545 7 360 4.8 12.9 0.00 0.00 0.00 59 1008.5
20260504045542 7 360 4.8 9.7 0.00 0.00 0.00 62 1008.6
20260504045041 7 360 3.2 8.0 0.00 0.00 0.00 64 1008.6
20260504044545 7 360 3.2 8.0 0.00 0.00 0.00 66 1008.6
20260504044039 7 360 1.6 6.4 0.00 0.00 0.00 66 1008.7
20260504043537 7 360 0.0 9.7 0.00 0.00 0.00 68 1008.8
20260504043037 6 360 3.2 9.7 0.00 0.00 0.00 70 1008.8
20260504042535 6 360 1.6 6.4 0.00 0.00 0.00 72 1008.9
20260504042035 6 360 0.0 6.4 0.00 0.00 0.00 73 1008.9
20260504041533 6 360 0.0 6.4 0.00 0.00 0.00 76 1008.9
20260504041034 6 360 0.0 6.4 0.00 0.00 0.00 76 1008.9
20260504040532 6 360 3.2 6.4 0.00 0.00 0.00 76 1008.9
20260504040042 6 360 3.2 6.4 0.00 0.00 0.00 77 1008.9
20260504035530 6 360 0.0 3.2 0.00 0.00 0.00 77 1009.0
20260504035031 6 360 0.0 0.0 0.00 0.00 0.00 76 1009.0
20260504034531 6 360 0.0 0.0 0.00 0.00 0.00 75 1009.2
20260504034029 6 360 0.0 0.0 0.00 0.00 0.00 75 1009.3
20260504033529 6 360 0.0 0.0 0.00 0.00 0.00 75 1009.4
20260504033029 6 360 0.0 0.0 0.00 0.00 0.00 75 1009.4
20260504032529 6 360 0.0 0.0 0.00 0.00 0.00 75 1009.4
20260504032029 6 360 0.0 6.4 0.00 0.00 0.00 74 1009.5
20260504031531 6 360 0.0 12.9 0.00 0.00 0.00 74 1009.5
20260504031029 6 360 4.8 12.9 0.00 0.00 0.00 73 1009.7
20260504030528 6 360 6.4 12.9 0.00 0.00 0.00 73 1009.6
20260504030028 6 360 6.4 17.7 0.00 0.00 0.00 72 1009.7
20260504025528 7 360 6.4 20.9 0.00 0.00 0.00 70 1009.8
20260504025128 7 360 11.3 20.9 0.00 0.00 0.00 67 1009.9
20260504024527 7 360 9.7 20.9 0.00 0.00 0.00 65 1009.8
20260504024027 7 360 8.0 25.7 0.00 0.00 0.00 63 1009.7
20260504023527 7 360 9.7 24.1 0.00 0.00 0.00 62 1009.6
20260504023027 7 360 6.4 35.4 0.00 0.00 0.00 60 1009.6
20260504022527 7 360 8.0 20.9 0.00 0.00 0.00 59 1009.6
20260504022025 7 360 0.0 6.4 0.00 0.00 0.00 58 1009.6
20260504021527 7 360 1.6 6.4 0.00 0.00 0.00 58 1009.6
20260504021024 7 360 0.0 3.2 0.00 0.00 0.00 58 1009.6
20260504020524 7 360 0.0 1.6 0.00 0.00 0.00 57 1009.5
20260504020026 7 360 0.0 4.8 0.00 0.00 0.00 57 1009.6
20260504015524 7 360 0.0 4.8 0.00 0.00 0.00 56 1009.6
20260504015024 7 360 0.0 4.8 0.00 0.00 0.00 56 1009.5
20260504014524 7 360 0.0 6.4 0.00 0.00 0.00 56 1009.5
20260504014023 7 360 0.0 8.0 0.00 0.00 0.00 56 1009.4
20260504013523 7 360 0.0 6.4 0.00 0.00 0.00 56 1009.4
20260504013030 7 360 1.6 9.7 0.00 0.00 0.00 55 1009.3
20260504012525 7 360 1.6 9.7 0.00 0.00 0.00 55 1009.4
20260504012024 7 360 3.2 9.7 0.00 0.00 0.00 55 1009.5
20260504011523 7 360 3.2 12.9 0.00 0.00 0.00 54 1009.6
20260504011022 7 360 3.2 16.1 0.00 0.00 0.00 53 1009.4
20260504010522 7 360 4.8 16.1 0.00 0.00 0.00 53 1009.5
20260504010022 7 360 1.6 9.7 0.00 0.00 0.00 52 1009.5
20260504005522 7 360 4.8 16.1 0.00 0.00 0.00 51 1009.4
20260504005022 8 360 8.0 16.1 0.00 0.00 0.00 51 1009.4
20260504004522 8 360 6.4 19.3 0.00 0.00 0.00 50 1009.5
20260504004021 7 360 9.7 19.3 0.00 0.00 0.00 51 1009.5
20260504003521 7 360 12.9 20.9 0.00 0.00 0.00 51 1009.6
20260504003022 7 360 11.3 20.9 0.00 0.00 0.00 52 1009.6
20260504002521 7 360 3.2 8.0 0.00 0.00 0.00 53 1009.6
20260504002021 7 360 3.2 8.0 0.00 0.00 0.00 52 1009.4
20260504001521 7 360 3.2 6.4 0.00 0.00 0.00 52 1009.4
20260504001020 7 360 3.2 12.9 0.00 0.00 0.00 51 1009.3
20260504000522 7 360 3.2 12.9 0.00 0.00 0.00 51 1009.3
20260504000020 7 360 4.8 17.7 0.00 0.00 0.00 50 1009.3
20260503235520 7 360 6.4 17.7 0.00 0.00 0.00 51 1009.3
20260503235020 8 360 6.4 12.9 0.00 0.00 0.00 49 1009.2
20260503234520 8 360 4.8 19.3 0.00 0.00 0.00 49 1009.2
20260503234020 8 360 6.4 19.3 0.00 0.00 0.00 49 1009.1
20260503233520 8 360 8.0 14.5 0.00 0.00 0.00 49 1009.1
20260503233019 8 360 3.2 9.7 0.00 0.00 0.00 48 1008.9
20260503232520 8 360 1.6 9.7 0.00 0.00 0.00 47 1008.9
20260503232019 8 360 4.8 17.7 0.00 0.00 0.00 48 1009.0
20260503231521 8 360 6.4 17.7 0.00 0.00 0.00 47 1009.0
20260503231019 8 360 9.7 19.3 0.00 0.00 0.00 46 1009.0
20260503230520 8 360 8.0 20.9 0.00 0.00 0.00 47 1009.1
20260503230018 8 360 6.4 22.5 0.00 0.00 0.00 48 1009.1
20260503225518 8 360 8.0 22.5 0.00 0.00 0.00 46 1009.1
20260503225018 8 360 4.8 22.5 0.00 0.00 0.00 47 1009.0
20260503224518 8 360 6.4 25.7 0.00 0.00 0.00 46 1009.0
20260503224019 8 360 4.8 25.7 0.00 0.00 0.00 46 1009.0
20260503223519 8 360 8.0 19.3 0.00 0.00 0.00 46 1008.9
20260503223018 8 360 6.4 24.1 0.00 0.00 0.00 46 1008.9
20260503222518 8 360 11.3 24.1 0.00 0.00 0.00 44 1008.9
20260503222017 8 360 8.0 20.9 0.00 0.00 0.00 44 1009.0
20260503221517 8 360 12.9 22.5 0.00 0.00 0.00 44 1009.0
20260503221017 8 360 12.9 25.7 0.00 0.00 0.00 44 1008.9
20260503220517 8 360 12.9 32.2 0.00 0.00 0.00 44 1009.0
20260503220016 8 360 12.9 32.2 0.00 0.00 0.00 44 1009.0
20260503215516 8 360 16.1 27.4 0.00 0.00 0.00 43 1009.0
20260503215018 8 360 14.5 22.5 0.00 0.00 0.00 42 1009.0
20260503214515 8 360 9.7 25.7 0.00 0.00 0.00 41 1009.0
20260503214015 8 360 12.9 29.0 0.00 0.00 0.00 42 1008.9
20260503213515 8 360 17.7 29.0 0.00 0.00 0.00 41 1008.8
20260503213016 8 360 14.5 29.0 0.00 0.00 0.00 41 1008.9
20260503212515 8 360 12.9 30.6 0.00 0.00 0.00 41 1008.9
20260503212016 8 360 14.5 30.6 0.00 0.00 0.00 40 1009.0
20260503211515 9 360 17.7 37.0 0.00 0.00 0.00 39 1008.7
20260503211015 9 360 17.7 37.0 0.00 0.00 0.00 38 1008.7
20260503210516 8 360 14.5 29.0 0.00 0.00 0.00 38 1008.8
20260503210016 8 360 16.1 35.4 0.00 0.00 0.00 37 1008.9
20260503205514 8 360 20.9 35.4 0.00 0.00 0.00 37 1008.8
20260503205015 8 360 19.3 35.4 0.00 0.00 0.00 36 1008.8
20260503204514 8 360 17.7 30.6 0.00 0.00 0.00 36 1008.7
20260503204013 8 360 16.1 27.4 0.00 0.00 0.00 35 1008.9
20260503203514 8 360 11.3 27.4 0.00 0.00 0.00 35 1008.9
20260503203013 9 360 14.5 24.1 0.00 0.00 0.00 34 1008.9
20260503202512 8 360 11.3 30.6 0.00 0.00 0.00 34 1008.9
20260503202012 8 360 11.3 33.8 0.00 0.00 0.00 33 1009.0
20260503201511 8 360 22.5 33.8 0.00 0.00 0.00 34 1008.8
20260503201011 9 360 11.3 27.4 0.00 0.00 0.00 33 1008.9
20260503200510 9 360 16.1 27.4 0.00 0.00 0.00 33 1008.9
20260503200010 9 360 11.3 27.4 0.00 0.00 0.00 31 1009.0
20260503195509 9 360 11.3 29.0 0.00 0.00 0.00 32 1009.1
20260503195011 9 360 17.7 32.2 0.00 0.00 0.00 31 1009.2
20260503194509 9 360 12.9 40.2 0.00 0.00 0.00 32 1009.2
20260503194008 8 360 17.7 40.2 0.00 0.00 0.00 32 1009.3
20260503193508 8 360 20.9 33.8 0.00 0.00 0.00 30 1009.2
20260503193007 8 360 14.5 29.0 0.00 0.00 0.00 31 1009.4
20260503192506 8 360 20.9 37.0 0.00 0.00 0.00 31 1009.5
20260503192007 9 360 20.9 37.0 0.00 0.00 0.00 34 1009.5
20260503191506 9 360 16.1 32.2 0.00 0.00 0.00 34 1009.4
20260503191004 9 360 12.9 32.2 0.00 0.00 0.00 35 1009.6
20260503190504 8 360 17.7 32.2 0.00 0.00 0.00 34 1009.6
20260503190005 8 360 14.5 30.6 0.00 0.00 0.00 36 1009.8
20260503185504 8 360 17.7 30.6 0.00 0.00 0.00 37 1009.8
20260503185003 8 360 17.7 40.2 0.00 0.00 0.00 36 1009.9
20260503184506 8 360 14.5 40.2 0.00 0.00 0.00 35 1010.0
20260503184100 8 360 11.3 32.2 0.00 0.00 0.00 35 1010.1
20260503183559 8 360 19.3 32.2 0.00 0.00 0.00 39 1010.1
20260503183109 8 360 12.9 30.6 0.00 0.00 0.00 36 1010.2
20260503182557 8 360 14.5 33.8 0.00 0.00 0.00 35 1010.3
20260503182057 8 360 16.1 33.8 0.00 0.00 0.00 37 1010.2
20260503181558 8 360 17.7 33.8 0.00 0.00 0.00 36 1010.3
20260503181056 8 360 19.3 33.8 0.00 0.00 0.00 37 1010.4
20260503180557 8 360 14.5 33.8 0.00 0.00 0.00 38 1010.3
20260503180058 8 360 16.1 33.8 0.00 0.00 0.00 34 1010.4
20260503175553 8 360 20.9 32.2 0.00 0.00 0.00 36 1010.4
20260503175052 8 360 14.5 29.0 0.00 0.00 0.00 37 1010.5
20260503174551 8 360 9.7 29.0 0.00 0.00 0.00 41 1010.5
20260503174053 7 360 6.4 35.4 0.00 0.00 0.00 40 1010.6
20260503173552 7 360 20.9 37.0 0.00 0.00 0.00 37 1010.6
20260503173109 7 360 24.1 37.0 0.00 0.00 0.00 35 1010.5
20260503172549 7 360 17.7 38.6 0.00 0.00 0.00 37 1010.7
20260503172051 7 360 22.5 38.6 0.00 0.00 0.00 37 1010.6
20260503171552 7 360 19.3 32.2 0.00 0.00 0.00 36 1010.6
20260503171048 7 360 11.3 38.6 0.00 0.00 0.00 38 1010.6
20260503170548 7 360 20.9 38.6 0.00 0.00 0.00 39 1010.5
20260503150538 4 360 12.9 30.6 0.00 0.00 0.00 47 1011.5
20260503131025 4 360 16.1 30.6 0.00 0.00 0.00 57 1011.8
20260503130523 3 360 14.5 30.6 0.00 0.00 0.00 59 1011.9
20260503110555 1 360 9.7 19.3 0.00 0.00 0.00 72 1011.2
20260503081539 0 360 0.0 3.2 0.00 0.00 0.00 81 1010.9
20260503081029 0 360 0.0 4.8 0.00 0.00 0.00 81 1010.9
20260503080530 0 360 0.0 4.8 0.00 0.00 0.00 81 1010.9
20260503072527 0 360 0.0 3.2 0.00 0.00 0.00 81 1011.0
20260503072025 0 360 0.0 3.2 0.00 0.00 0.00 81 1011.0
20260503071525 0 360 0.0 4.8 0.00 0.00 0.00 81 1011.0
20260503071025 0 360 0.0 8.0 0.00 0.00 0.00 81 1011.0
20260503070523 0 360 0.0 4.8 0.00 0.00 0.00 81 1011.0
20260503055013 0 360 0.0 4.8 0.00 0.00 0.00 82 1011.4
20260503054513 0 360 0.0 1.6 0.00 0.00 0.00 82 1011.5
20260503054012 0 360 0.0 1.6 0.00 0.00 0.00 82 1011.5
20260503053511 0 360 0.0 1.6 0.00 0.00 0.00 82 1011.6
20260503053012 0 360 0.0 1.6 0.00 0.00 0.00 82 1011.7
20260503052511 0 360 0.0 1.6 0.00 0.00 0.00 82 1011.8